Messwerte Silemani

Temperatur

Temperatur
°C
1603998000 22.00 22.00 12
1604001600 23.00 23.00 10
1604005200 0.00 0.00
1604008800 1.00 1.00 9
1604012400 2.00 2.00 9
1604016000 3.00 3.00
1604019600 4.00 4.00 9
1604023200 5.00 5.00 8
1604026800 6.00 6.00 8
1604030400 7.00 7.00 7
1604034000 8.00 8.00 14
1604037600 9.00 9.00 20
1604041200 10.00 10.00 24
1604044800 11.00 11.00 26
1604048400 12.00 12.00 28
1604052000 13.00 13.00 29
1604055600 14.00 14.00 29
1604059200 15.00 15.00 30
1604062800 16.00 16.00 29
1604066400 17.00 17.00 24
1604070000 18.00 18.00 20
1604073600 19.00 19.00 16
1604077200 20.00 20.00 15
1604080800 21.00 21.00 12

Aktuellste Messwerte

Wettercharakter
Wetter: meist klar
Temperatur
12 °C
Feuchtigkeit
30 %
Wind
5 km/hWindrichtung: Nordwest
Luftdruck
1022 hPa
Messzeit: 30. Oktober 2020, 21.00Datenquelle: METAR

Weitere Messstationen in der Nähe

Messstation Temperatur Entfernung
Kermanshah 11 °C 208 km
Orumieh 10 °C 222 km
Täbris 16 °C 291 km
Zanjan - 300 km
Khorramabad - 353 km
Van 9 °C 375 km
Nachitschewan 13 °C 404 km

Wind

Windrichtung Böen Mittelwind
° km/h km/h
1603998000 22.00 21.00 - 22.00 330° 5
1604001600 23.00 22.00 - 23.00 300° 10
1604005200 0.00 23.00 - 0.00
1604008800 1.00 0.00 - 1.00 290° 5
1604012400 2.00 1.00 - 2.00 290° 10
1604016000 3.00 2.00 - 3.00
1604019600 4.00 3.00 - 4.00 5
1604023200 5.00 4.00 - 5.00 290° 5
1604026800 6.00 5.00 - 6.00 320° 5
1604030400 7.00 6.00 - 7.00 320° 5
1604034000 8.00 7.00 - 8.00 5
1604037600 9.00 8.00 - 9.00 5
1604041200 10.00 9.00 - 10.00 140° 10
1604044800 11.00 10.00 - 11.00 140° 15
1604048400 12.00 11.00 - 12.00 140° 15
1604052000 13.00 12.00 - 13.00 120° 10
1604055600 14.00 13.00 - 14.00 5
1604059200 15.00 14.00 - 15.00 120° 5
1604062800 16.00 15.00 - 16.00 150° 5
1604066400 17.00 16.00 - 17.00 5
1604070000 18.00 17.00 - 18.00 310° 5
1604073600 19.00 18.00 - 19.00 310° 5
1604077200 20.00 19.00 - 20.00 290° 5
1604080800 21.00 20.00 - 21.00 310° 5

Ihre Wetterstation

Fehlt Ihre Wetterstation auf unserem Portal?

Schreiben Sie an network@meteonews.ch

Klima

Wann ist es am wärmsten? Wann regnet es am wenigsten? Unsere Klimadaten geben Auskunft.